(°C)
-6°
-6°
-5°
-5°
-5°
-5°
-5°
(°C)
-12°
-12°
-11°
-11°
-10°
-10°
-10°
JJV
JJV
JJV
JJV
JJV
JJV
JJV
(km/h)
18-33
17-30
16-28
15-26
14-25
13-22
12-21
(mm)
3
0
0
0
1.8
0
0
(%)
61
52
52
58
68
52
45

Sluneční výška

/ -18.5°
sun-icon
UV 0
08:29
16:58
Ubývající srpek (308°)
05:16
12:11

METAR pro 55.6°S 37.27°V (UUWW)

Čas Podmínky Teplota/
Rosný bod
Vítr Viditelnost Počasí Oblaky Tlak Změna Nezpracované
IFR -6°C / -8°C 140º 8kt 2900m Light Snow 1.00mm precipitation Vertical Visibility of 0ft.
Broken Clouds 3600ft
1002 Temporary: Visibility 1000. Showers Snow . Broken Clouds 1000ft. Cumulonimbus . Runway 06: Dry snow, 51-100% contamination with 10mm, friction coefficient 0.35. UUWW 281600Z 14004MPS 2900 -SN FEW011 BKN036 M06/M08 Q1002 RESN R06/491035 TEMPO 1000 SHSN BKN010CB
LIFR -6°C / -8°C 140º 8kt 1300m Snow 3.00mm precipitation Vertical Visibility of 0ft.
Broken Clouds 3600ft
1002 Temporary: Visibility 0500. Heavy Showers Snow . Broken Clouds 1000ft. Cumulonimbus . Runway 06: Dry snow, 51-100% contamination with 10mm, friction coefficient 0.35. UUWW 281530Z 14004MPS 1300 1100SE SN FEW011 BKN036 M06/M08 Q1002 R06/491035 TEMPO 0500 +SHSN BKN010CB
LIFR -6°C / -8°C 140º 8kt 1500m Snow 3.00mm precipitation Vertical Visibility of 0ft.
Broken Clouds 4300ft
1002 Temporary: Visibility 0500. Heavy Showers Snow . Broken Clouds 1000ft. Cumulonimbus . Runway 06: Dry snow, 51-100% contamination with 10mm, friction coefficient 0.35. UUWW 281500Z 14004MPS 1500 SN FEW011 BKN043 M06/M08 Q1002 R06/491035 TEMPO 0500 +SHSN BKN010CB
IFR -6°C / -8°C 130º 10kt 2000m. Runway 19: Visual range is 1900m and increasing. Snow 3.00mm precipitation Vertical Visibility of 0ft.
Broken Clouds 3600ft
1002 Temporary: Visibility 0500. Heavy Showers Snow . Broken Clouds 1000ft. Cumulonimbus . Runway 19: Dry snow, 51-100% contamination with 10mm, friction coefficient 0.37. UUWW 281430Z 13005MPS 2000 R19/1900U SN FEW010 BKN036 M06/M08 Q1002 R19/491037 TEMPO 0500 +SHSN BKN010CB
IFR -6°C / -8°C 130º 10kt 1800m. Runway 19: Visual range is 1800m and decreasing. Snow 3.00mm precipitation Vertical Visibility of 0ft.
Broken Clouds 2600ft
1002 Temporary: Visibility 0500. Heavy Showers Snow . Broken Clouds 1000ft. Cumulonimbus . Runway 19: Dry snow, 51-100% contamination with 10mm, friction coefficient 0.37. UUWW 281400Z 13005MPS 1800 R19/1800D SN FEW010 BKN026 M06/M08 Q1002 R19/491037 TEMPO 0500 +SHSN BKN010CB
IFR -6°C / -8°C 140º 10kt 2400m Light Snow 1.00mm precipitation Vertical Visibility of 0ft.
Broken Clouds 2600ft
1002 Temporary: Visibility 0700. Heavy Showers Snow . Broken Clouds 1000ft. Cumulonimbus . Runway 19: Dry snow, 51-100% contamination with 10mm, friction coefficient 0.37. UUWW 281330Z 14005MPS 2400 -SN FEW008 BKN026 M06/M08 Q1002 R19/491037 TEMPO 0700 +SHSN BKN010CB
IFR -6°C / -8°C 140º 10kt 3000m Light Snow 1.00mm precipitation Vertical Visibility of 0ft.
Broken Clouds 3600ft
1002 Temporary: Visibility 0700. Heavy Showers Snow . Broken Clouds 1000ft. Cumulonimbus . Runway 19: Dry snow, 51-100% contamination with 10mm, friction coefficient 0.37. UUWW 281300Z 14005MPS 3000 -SN FEW009 BKN036 M06/M08 Q1002 RESN R19/491037 TEMPO 0700 +SHSN BKN010CB
IFR -6°C / -8°C 140º 10kt 2000m Snow 3.00mm precipitation Vertical Visibility of 0ft.
Broken Clouds 3600ft
1002 Temporary: Visibility 0700. Heavy Showers Snow . Broken Clouds 1000ft. Cumulonimbus . Runway 19: Dry snow, 51-100% contamination with 10mm, friction coefficient 0.37. UUWW 281230Z 14005MPS 2000 SN FEW011 BKN036 M06/M08 Q1002 R19/491037 TEMPO 0700 +SHSN BKN010CB
IFR -6°C / -8°C 140º 12kt 3900m Light Snow 1.00mm precipitation Vertical Visibility of 0ft.
Broken Clouds 3600ft
1002 Temporary: Visibility 0700. Heavy Showers Snow . Broken Clouds 1000ft. Cumulonimbus . Runway 19: Dry snow, 51-100% contamination with 10mm, friction coefficient 0.37. UUWW 281200Z 14006MPS 3900 -SN FEW012 BKN036 M06/M08 Q1002 R19/491037 TEMPO 0700 +SHSN BKN010CB
MVFR -6°C / -8°C 150º 14kt 6000m Light Snow 1.00mm precipitation Vertical Visibility of 0ft.
Broken Clouds 3500ft
1002 Temporary: Visibility 0700. Heavy Showers Snow . Broken Clouds 1000ft. Cumulonimbus . Runway 19: Dry snow, 51-100% contamination with 10mm, friction coefficient 0.37. UUWW 281130Z 15007MPS 6000 -SN FEW011 BKN035 M06/M08 Q1002 R19/491037 TEMPO 0700 +SHSN BKN010CB
IFR -6°C / -8°C 140º 12kt 3600m Light Snow 1.00mm precipitation Vertical Visibility of 0ft.
Broken Clouds 3500ft
1002 Temporary: Visibility 0700. Heavy Showers Snow . Broken Clouds 1000ft. Cumulonimbus . Runway 19: Dry snow, 51-100% contamination with 10mm, friction coefficient 0.37. UUWW 281100Z 14006MPS 3600 -SN FEW011 BKN035 M06/M08 Q1002 R19/491037 TEMPO 0700 +SHSN BKN010CB
IFR -6°C / -8°C 150º 14kt 3100m Light Snow 1.00mm precipitation Vertical Visibility of 0ft.
Broken Clouds 3500ft
1002 Temporary: Visibility 1000. Showers Snow . Broken Clouds 1000ft. Cumulonimbus . Runway 19: Dry snow, 51-100% contamination with 10mm, friction coefficient 0.37. UUWW 281030Z 15007MPS 3100 -SN FEW011 BKN035 M06/M08 Q1002 R19/491037 TEMPO 1000 SHSN BKN010CB
IFR -6°C / -8°C 140º 12kt 3600m Light Snow 1.00mm precipitation Vertical Visibility of 0ft.
Broken Clouds 3500ft
1002 Temporary: Visibility 1000. Showers Snow . Broken Clouds 1000ft. Cumulonimbus . Runway 19: Dry snow, 51-100% contamination with 10mm, friction coefficient 0.37. UUWW 281000Z 14006MPS 3600 -SN FEW011 BKN035 M06/M08 Q1002 R19/491037 TEMPO 1000 SHSN BKN010CB
IFR -6°C / -8°C 140º 12kt 4500m Light Snow 1.00mm precipitation Vertical Visibility of 0ft.
Broken Clouds 2500ft
1002 Temporary: Visibility 1000. Showers Snow . Broken Clouds 1000ft. Cumulonimbus . Runway 19: Dry snow, 51-100% contamination with 10mm, friction coefficient 0.37. UUWW 280930Z 14006MPS 4500 -SN FEW011 BKN025 M06/M08 Q1002 R19/491037 TEMPO 1000 SHSN BKN010CB
IFR -6°C / -8°C 150º 12kt 2300m Light Snow 1.00mm precipitation Vertical Visibility of 0ft.
Broken Clouds 3000ft
1002 Temporary: Visibility 1000. Showers Snow . Broken Clouds 1000ft. Cumulonimbus . Runway 19: Dry snow, 51-100% contamination with 10mm, friction coefficient 0.37. UUWW 280900Z 15006MPS 2300 -SN FEW011 BKN030 M06/M08 Q1002 R19/491037 TEMPO 1000 SHSN BKN010CB
IFR -6°C / -9°C 140º 12kt 4300m Light Snow 1.00mm precipitation Vertical Visibility of 0ft.
Broken Clouds 3000ft
1003 Temporary: Visibility 1000. Showers Snow . Broken Clouds 1000ft. Cumulonimbus . Runway 19: Dry snow, 51-100% contamination with 10mm, friction coefficient 0.37. UUWW 280830Z 14006MPS 4300 -SN FEW010 BKN030 M06/M09 Q1003 R19/491037 TEMPO 1000 SHSN BKN010CB
IFR -7°C / -9°C 150º 12kt 3100m Light Snow 1.00mm precipitation Vertical Visibility of 0ft.
Broken Clouds 3000ft
1003 Temporary: Visibility 1000. Showers Snow . Broken Clouds 1000ft. Cumulonimbus . Runway 19: Dry snow, 51-100% contamination with 10mm, friction coefficient 0.37. UUWW 280800Z 15006MPS 3100 -SN FEW010 BKN030 M07/M09 Q1003 R19/491037 TEMPO 1000 SHSN BKN010CB
IFR -7°C / -9°C 140º 8kt 2200m Light Snow 1.00mm precipitation Vertical Visibility of 0ft.
Broken Clouds 2500ft
1003 Temporary: Visibility 1000. Showers Snow . Broken Clouds 1000ft. Cumulonimbus . Runway 06: Wet snow, 51-100% contamination with 5mm, friction coefficient 0.37. UUWW 280730Z 14004MPS 2200 -SN FEW012 BKN025 M07/M09 Q1003 RESN R06/590537 TEMPO 1000 SHSN BKN010CB
IFR -7°C / -9°C 140º 8kt. Wind Shear present on Runway 06. 3700m Light Snow 1.00mm precipitation Vertical Visibility of 0ft.
Broken Clouds 2500ft
1003 Temporary: Visibility 1000. Showers Snow . Broken Clouds 1000ft. Cumulonimbus . Runway 06: Wet snow, 51-100% contamination with 5mm, friction coefficient 0.37. UUWW 280700Z 14004MPS 3700 -SN FEW012 BKN025 M07/M09 Q1003 RESHSN WS R06 R06/590537 TEMPO 1000 SHSN BKN010CB
IFR -7°C / -9°C 150º 12kt 3400m Light Snow 1.00mm precipitation Vertical Visibility of 0ft.
Broken Clouds 2500ft
1003 Temporary: Visibility 1000. Showers Snow . Broken Clouds 1000ft. Cumulonimbus . Runway 19: Dry snow, 26-50% contamination with 2mm, friction coefficient 0.37. UUWW 280630Z 15006MPS 3400 -SN BKN009 BKN025 M07/M09 Q1003 RESHSN R19/450237 TEMPO 1000 SHSN BKN010CB
IFR -7°C / °C 140º 12kt 4800m Light Snow 1.00mm precipitation Vertical Visibility of 0ft.
Broken Clouds 3000ft
1003 Temporary: Visibility 1000. Showers Snow . Broken Clouds 1000ft. Cumulonimbus . Runway 19: Dry snow, 26-50% contamination with 2mm, friction coefficient 0.37. UUWW 280600Z 14006MPS 4800 -SN FEW012 BKN030 M07/M10 Q1003 RESHSN R19/450237 TEMPO 1000 SHSN BKN010CB
IFR -8°C / °C 140º 10kt 3600m Light Showers Snow 3.00mm precipitation Vertical Visibility of 0ft.
Broken Clouds 3000ft
1003 Temporary: Visibility 1000. Showers Snow . Broken Clouds 1000ft. Cumulonimbus . Runway 19: Dry snow, 26-50% contamination with 2mm, friction coefficient 0.37. UUWW 280530Z 14005MPS 3600 -SHSN FEW012 BKN030CB M08/M10 Q1003 RESHSN R19/450237 TEMPO 1000 SHSN BKN010CB
MVFR -8°C / °C 140º 12kt 9000m Light Snow 1.00mm precipitation Vertical Visibility of 0ft.
Broken Clouds 3000ft
1003 No Significant change. Runway 19: Dry snow, 26-50% contamination with 2mm, friction coefficient 0.37. UUWW 280500Z 14006MPS 9000 -SN BKN012 BKN030 M08/M10 Q1003 R19/450237 NOSIG
MVFR -8°C / °C 150º 12kt >10km - Overcast 1000ft 1003 No Significant change. Runway 19: Dry snow, 26-50% contamination with 5mm, friction coefficient 0.37. UUWW 280430Z 15006MPS 9999 OVC010 M08/M10 Q1003 R19/450537 NOSIG

IFR

-6°C / -8°C

[Víc]
Vítr 140º 8kt
Viditelnost 2900m
Počasí Light Snow 1.00mm precipitation
Oblaky Vertical Visibility of 0ft.
Broken Clouds 3600ft
Tlak 1002
Změna Temporary: Visibility 1000. Showers Snow . Broken Clouds 1000ft. Cumulonimbus . Runway 06: Dry snow, 51-100% contamination with 10mm, friction coefficient 0.35.
Nezpracované UUWW 281600Z 14004MPS 2900 -SN FEW011 BKN036 M06/M08 Q1002 RESN R06/491035 TEMPO 1000 SHSN BKN010CB

LIFR

-6°C / -8°C

[Víc]
Vítr 140º 8kt
Viditelnost 1300m
Počasí Snow 3.00mm precipitation
Oblaky Vertical Visibility of 0ft.
Broken Clouds 3600ft
Tlak 1002
Změna Temporary: Visibility 0500. Heavy Showers Snow . Broken Clouds 1000ft. Cumulonimbus . Runway 06: Dry snow, 51-100% contamination with 10mm, friction coefficient 0.35.
Nezpracované UUWW 281530Z 14004MPS 1300 1100SE SN FEW011 BKN036 M06/M08 Q1002 R06/491035 TEMPO 0500 +SHSN BKN010CB

LIFR

-6°C / -8°C

[Víc]
Vítr 140º 8kt
Viditelnost 1500m
Počasí Snow 3.00mm precipitation
Oblaky Vertical Visibility of 0ft.
Broken Clouds 4300ft
Tlak 1002
Změna Temporary: Visibility 0500. Heavy Showers Snow . Broken Clouds 1000ft. Cumulonimbus . Runway 06: Dry snow, 51-100% contamination with 10mm, friction coefficient 0.35.
Nezpracované UUWW 281500Z 14004MPS 1500 SN FEW011 BKN043 M06/M08 Q1002 R06/491035 TEMPO 0500 +SHSN BKN010CB

IFR

-6°C / -8°C

[Víc]
Vítr 130º 10kt
Viditelnost 2000m. Runway 19: Visual range is 1900m and increasing.
Počasí Snow 3.00mm precipitation
Oblaky Vertical Visibility of 0ft.
Broken Clouds 3600ft
Tlak 1002
Změna Temporary: Visibility 0500. Heavy Showers Snow . Broken Clouds 1000ft. Cumulonimbus . Runway 19: Dry snow, 51-100% contamination with 10mm, friction coefficient 0.37.
Nezpracované UUWW 281430Z 13005MPS 2000 R19/1900U SN FEW010 BKN036 M06/M08 Q1002 R19/491037 TEMPO 0500 +SHSN BKN010CB

IFR

-6°C / -8°C

[Víc]
Vítr 130º 10kt
Viditelnost 1800m. Runway 19: Visual range is 1800m and decreasing.
Počasí Snow 3.00mm precipitation
Oblaky Vertical Visibility of 0ft.
Broken Clouds 2600ft
Tlak 1002
Změna Temporary: Visibility 0500. Heavy Showers Snow . Broken Clouds 1000ft. Cumulonimbus . Runway 19: Dry snow, 51-100% contamination with 10mm, friction coefficient 0.37.
Nezpracované UUWW 281400Z 13005MPS 1800 R19/1800D SN FEW010 BKN026 M06/M08 Q1002 R19/491037 TEMPO 0500 +SHSN BKN010CB

IFR

-6°C / -8°C

[Víc]
Vítr 140º 10kt
Viditelnost 2400m
Počasí Light Snow 1.00mm precipitation
Oblaky Vertical Visibility of 0ft.
Broken Clouds 2600ft
Tlak 1002
Změna Temporary: Visibility 0700. Heavy Showers Snow . Broken Clouds 1000ft. Cumulonimbus . Runway 19: Dry snow, 51-100% contamination with 10mm, friction coefficient 0.37.
Nezpracované UUWW 281330Z 14005MPS 2400 -SN FEW008 BKN026 M06/M08 Q1002 R19/491037 TEMPO 0700 +SHSN BKN010CB

IFR

-6°C / -8°C

[Víc]
Vítr 140º 10kt
Viditelnost 3000m
Počasí Light Snow 1.00mm precipitation
Oblaky Vertical Visibility of 0ft.
Broken Clouds 3600ft
Tlak 1002
Změna Temporary: Visibility 0700. Heavy Showers Snow . Broken Clouds 1000ft. Cumulonimbus . Runway 19: Dry snow, 51-100% contamination with 10mm, friction coefficient 0.37.
Nezpracované UUWW 281300Z 14005MPS 3000 -SN FEW009 BKN036 M06/M08 Q1002 RESN R19/491037 TEMPO 0700 +SHSN BKN010CB

IFR

-6°C / -8°C

[Víc]
Vítr 140º 10kt
Viditelnost 2000m
Počasí Snow 3.00mm precipitation
Oblaky Vertical Visibility of 0ft.
Broken Clouds 3600ft
Tlak 1002
Změna Temporary: Visibility 0700. Heavy Showers Snow . Broken Clouds 1000ft. Cumulonimbus . Runway 19: Dry snow, 51-100% contamination with 10mm, friction coefficient 0.37.
Nezpracované UUWW 281230Z 14005MPS 2000 SN FEW011 BKN036 M06/M08 Q1002 R19/491037 TEMPO 0700 +SHSN BKN010CB

IFR

-6°C / -8°C

[Víc]
Vítr 140º 12kt
Viditelnost 3900m
Počasí Light Snow 1.00mm precipitation
Oblaky Vertical Visibility of 0ft.
Broken Clouds 3600ft
Tlak 1002
Změna Temporary: Visibility 0700. Heavy Showers Snow . Broken Clouds 1000ft. Cumulonimbus . Runway 19: Dry snow, 51-100% contamination with 10mm, friction coefficient 0.37.
Nezpracované UUWW 281200Z 14006MPS 3900 -SN FEW012 BKN036 M06/M08 Q1002 R19/491037 TEMPO 0700 +SHSN BKN010CB

MVFR

-6°C / -8°C

[Víc]
Vítr 150º 14kt
Viditelnost 6000m
Počasí Light Snow 1.00mm precipitation
Oblaky Vertical Visibility of 0ft.
Broken Clouds 3500ft
Tlak 1002
Změna Temporary: Visibility 0700. Heavy Showers Snow . Broken Clouds 1000ft. Cumulonimbus . Runway 19: Dry snow, 51-100% contamination with 10mm, friction coefficient 0.37.
Nezpracované UUWW 281130Z 15007MPS 6000 -SN FEW011 BKN035 M06/M08 Q1002 R19/491037 TEMPO 0700 +SHSN BKN010CB

IFR

-6°C / -8°C

[Víc]
Vítr 140º 12kt
Viditelnost 3600m
Počasí Light Snow 1.00mm precipitation
Oblaky Vertical Visibility of 0ft.
Broken Clouds 3500ft
Tlak 1002
Změna Temporary: Visibility 0700. Heavy Showers Snow . Broken Clouds 1000ft. Cumulonimbus . Runway 19: Dry snow, 51-100% contamination with 10mm, friction coefficient 0.37.
Nezpracované UUWW 281100Z 14006MPS 3600 -SN FEW011 BKN035 M06/M08 Q1002 R19/491037 TEMPO 0700 +SHSN BKN010CB

IFR

-6°C / -8°C

[Víc]
Vítr 150º 14kt
Viditelnost 3100m
Počasí Light Snow 1.00mm precipitation
Oblaky Vertical Visibility of 0ft.
Broken Clouds 3500ft
Tlak 1002
Změna Temporary: Visibility 1000. Showers Snow . Broken Clouds 1000ft. Cumulonimbus . Runway 19: Dry snow, 51-100% contamination with 10mm, friction coefficient 0.37.
Nezpracované UUWW 281030Z 15007MPS 3100 -SN FEW011 BKN035 M06/M08 Q1002 R19/491037 TEMPO 1000 SHSN BKN010CB

IFR

-6°C / -8°C

[Víc]
Vítr 140º 12kt
Viditelnost 3600m
Počasí Light Snow 1.00mm precipitation
Oblaky Vertical Visibility of 0ft.
Broken Clouds 3500ft
Tlak 1002
Změna Temporary: Visibility 1000. Showers Snow . Broken Clouds 1000ft. Cumulonimbus . Runway 19: Dry snow, 51-100% contamination with 10mm, friction coefficient 0.37.
Nezpracované UUWW 281000Z 14006MPS 3600 -SN FEW011 BKN035 M06/M08 Q1002 R19/491037 TEMPO 1000 SHSN BKN010CB

IFR

-6°C / -8°C

[Víc]
Vítr 140º 12kt
Viditelnost 4500m
Počasí Light Snow 1.00mm precipitation
Oblaky Vertical Visibility of 0ft.
Broken Clouds 2500ft
Tlak 1002
Změna Temporary: Visibility 1000. Showers Snow . Broken Clouds 1000ft. Cumulonimbus . Runway 19: Dry snow, 51-100% contamination with 10mm, friction coefficient 0.37.
Nezpracované UUWW 280930Z 14006MPS 4500 -SN FEW011 BKN025 M06/M08 Q1002 R19/491037 TEMPO 1000 SHSN BKN010CB

IFR

-6°C / -8°C

[Víc]
Vítr 150º 12kt
Viditelnost 2300m
Počasí Light Snow 1.00mm precipitation
Oblaky Vertical Visibility of 0ft.
Broken Clouds 3000ft
Tlak 1002
Změna Temporary: Visibility 1000. Showers Snow . Broken Clouds 1000ft. Cumulonimbus . Runway 19: Dry snow, 51-100% contamination with 10mm, friction coefficient 0.37.
Nezpracované UUWW 280900Z 15006MPS 2300 -SN FEW011 BKN030 M06/M08 Q1002 R19/491037 TEMPO 1000 SHSN BKN010CB

IFR

-6°C / -9°C

[Víc]
Vítr 140º 12kt
Viditelnost 4300m
Počasí Light Snow 1.00mm precipitation
Oblaky Vertical Visibility of 0ft.
Broken Clouds 3000ft
Tlak 1003
Změna Temporary: Visibility 1000. Showers Snow . Broken Clouds 1000ft. Cumulonimbus . Runway 19: Dry snow, 51-100% contamination with 10mm, friction coefficient 0.37.
Nezpracované UUWW 280830Z 14006MPS 4300 -SN FEW010 BKN030 M06/M09 Q1003 R19/491037 TEMPO 1000 SHSN BKN010CB

IFR

-7°C / -9°C

[Víc]
Vítr 150º 12kt
Viditelnost 3100m
Počasí Light Snow 1.00mm precipitation
Oblaky Vertical Visibility of 0ft.
Broken Clouds 3000ft
Tlak 1003
Změna Temporary: Visibility 1000. Showers Snow . Broken Clouds 1000ft. Cumulonimbus . Runway 19: Dry snow, 51-100% contamination with 10mm, friction coefficient 0.37.
Nezpracované UUWW 280800Z 15006MPS 3100 -SN FEW010 BKN030 M07/M09 Q1003 R19/491037 TEMPO 1000 SHSN BKN010CB

IFR

-7°C / -9°C

[Víc]
Vítr 140º 8kt
Viditelnost 2200m
Počasí Light Snow 1.00mm precipitation
Oblaky Vertical Visibility of 0ft.
Broken Clouds 2500ft
Tlak 1003
Změna Temporary: Visibility 1000. Showers Snow . Broken Clouds 1000ft. Cumulonimbus . Runway 06: Wet snow, 51-100% contamination with 5mm, friction coefficient 0.37.
Nezpracované UUWW 280730Z 14004MPS 2200 -SN FEW012 BKN025 M07/M09 Q1003 RESN R06/590537 TEMPO 1000 SHSN BKN010CB

IFR

-7°C / -9°C

[Víc]
Vítr 140º 8kt. Wind Shear present on Runway 06.
Viditelnost 3700m
Počasí Light Snow 1.00mm precipitation
Oblaky Vertical Visibility of 0ft.
Broken Clouds 2500ft
Tlak 1003
Změna Temporary: Visibility 1000. Showers Snow . Broken Clouds 1000ft. Cumulonimbus . Runway 06: Wet snow, 51-100% contamination with 5mm, friction coefficient 0.37.
Nezpracované UUWW 280700Z 14004MPS 3700 -SN FEW012 BKN025 M07/M09 Q1003 RESHSN WS R06 R06/590537 TEMPO 1000 SHSN BKN010CB

IFR

-7°C / -9°C

[Víc]
Vítr 150º 12kt
Viditelnost 3400m
Počasí Light Snow 1.00mm precipitation
Oblaky Vertical Visibility of 0ft.
Broken Clouds 2500ft
Tlak 1003
Změna Temporary: Visibility 1000. Showers Snow . Broken Clouds 1000ft. Cumulonimbus . Runway 19: Dry snow, 26-50% contamination with 2mm, friction coefficient 0.37.
Nezpracované UUWW 280630Z 15006MPS 3400 -SN BKN009 BKN025 M07/M09 Q1003 RESHSN R19/450237 TEMPO 1000 SHSN BKN010CB

IFR

-7°C / °C

[Víc]
Vítr 140º 12kt
Viditelnost 4800m
Počasí Light Snow 1.00mm precipitation
Oblaky Vertical Visibility of 0ft.
Broken Clouds 3000ft
Tlak 1003
Změna Temporary: Visibility 1000. Showers Snow . Broken Clouds 1000ft. Cumulonimbus . Runway 19: Dry snow, 26-50% contamination with 2mm, friction coefficient 0.37.
Nezpracované UUWW 280600Z 14006MPS 4800 -SN FEW012 BKN030 M07/M10 Q1003 RESHSN R19/450237 TEMPO 1000 SHSN BKN010CB

IFR

-8°C / °C

[Víc]
Vítr 140º 10kt
Viditelnost 3600m
Počasí Light Showers Snow 3.00mm precipitation
Oblaky Vertical Visibility of 0ft.
Broken Clouds 3000ft
Tlak 1003
Změna Temporary: Visibility 1000. Showers Snow . Broken Clouds 1000ft. Cumulonimbus . Runway 19: Dry snow, 26-50% contamination with 2mm, friction coefficient 0.37.
Nezpracované UUWW 280530Z 14005MPS 3600 -SHSN FEW012 BKN030CB M08/M10 Q1003 RESHSN R19/450237 TEMPO 1000 SHSN BKN010CB

MVFR

-8°C / °C

[Víc]
Vítr 140º 12kt
Viditelnost 9000m
Počasí Light Snow 1.00mm precipitation
Oblaky Vertical Visibility of 0ft.
Broken Clouds 3000ft
Tlak 1003
Změna No Significant change. Runway 19: Dry snow, 26-50% contamination with 2mm, friction coefficient 0.37.
Nezpracované UUWW 280500Z 14006MPS 9000 -SN BKN012 BKN030 M08/M10 Q1003 R19/450237 NOSIG

MVFR

-8°C / °C

[Víc]
Vítr 150º 12kt
Viditelnost >10km
Počasí -
Oblaky Overcast 1000ft
Tlak 1003
Změna No Significant change. Runway 19: Dry snow, 26-50% contamination with 5mm, friction coefficient 0.37.
Nezpracované UUWW 280430Z 15006MPS 9999 OVC010 M08/M10 Q1003 R19/450537 NOSIG

TAF pro 55.6°S 37.27°V (UUWW)

From till


Maximum Temperature -2ºC on . Minimum Temperature -6ºC on .
From till Wind 130º 6kt. Gust 16kt. Visibility 2500m. Light Snow . Overcast 800ft.
Temporarly from till Visibility 498.895m. Heavy Showers Snow Light freezing Rain . Broken Clouds 400ft. Broken Clouds 1200ft.

Nezpracované: TAF UUWW 281350Z 2815/2915 13003G08MPS 2500 -SN OVC008 TXM02/2912Z TNM06/2815Z TEMPO 2815/2909 0500 +SHSN -FZRA BKN004 BKN012CB

Radar a krátkodobá předpověď srážek pro 55.6°S 37.27°V

Mrholení
Slabé
Střední
Silné
Velmi silné
Kroupy

Značka lokality je umístněna na 55.6°S 37.27°V. Tato animace ukazuje srážky zaznamenané radarem za poslední hodinu a také 1h předpověď. Mrholení nebo slabé sněžení může být pro radar neviditelné. Intenzita srážek je barevně označena od světle modré po oranžovou.

Aktuální snímky ze satelitu a srážky pro 55.6°S 37.27°V

Značka polohy je umístěna na 55.6°S 37.27°V. [Víc]

Satelitní snímek v reálném čase kombinuje viditelné světlo během dne s infračerveným zářením během noci. V noci není obraz tmavý, protože infračervené záření dokáže detekovat teplotní rozdíly. Nízká oblačnost a mlha se bohužel těžko odlišují od pozemních teplot, a proto mohou být během noci téměř neviditelné. Satelitní snímky z Meteosatu pro Evropu jsou aktualizovány v reálném čase každých 5 minut. Snímky z GOES-16/GOES-17 (Severní a Jižní Amerika) a Himawari (Asie) jsou aktualizovány) každých 10 minut.

Copyright 2022 EUMETSAT / meteoblue. / Copyright 2022 meteoblue